Weather in Ozero Tagarskoye

Russia / Krasnoyarsk Krai     53°35′55″N   91°47′49″E
temp.,
°C
wind,
m/s
gust,
m/s
humid.,
%
clouds,
%
prec.,
mm/h
press.,
hPa
HPBL,
m
13 may, thu
thu1301:00+9nne22591 0.0 101316
04:00+8wnw11620 0.0 101410
07:00+10wnw11580 0.0 1015106
10:00+15nnw24390 0.0 10141139
13:00+17nnw44300 0.0 10131943
16:00+18n34275 0.0 10121958
19:00+18n11335 0.0 1012195
22:00+12ese224136 0.0 101311
14 may, fri
fri1401:00+10se2251100 0.0 101310
04:00+8se22555 0.0 101310
07:00+10sse12555 0.0 1014113
10:00+15ssw23455 0.0 1013606
13:00+20wsw353472 0.0 10112313
16:00+15nnw9106273 0.8 1012911
19:00+12n486975 3.5 1017844
22:00+9wsw1158100 0.1 102110
15 may, sat
sat1501:00+7wsw2262100 0.1 102320
04:00+7ssw1155100 0.0 102310
07:00+8s2456100 0.0 1024158
10:00+13wsw683979 0.0 10231086
13:00+17wsw8103898 0.0 10211425
16:00+15wsw71248100 0.0 1020490
19:00+13wsw5969100 1.1 1021298
22:00+12s3577100 0.0 1020117
16 may, sun
sun1601:00+12s248060 0.0 1019101
04:00+12ssw3773100 0.0 1017161
07:00+13sw41367100 0.0 1017410
10:00+14w2866100 0.1 1017292
13:00+19ssw265291 0.2 1015609
16:00+23wsw8104084 0.0 10122208
19:00+15n5107897 0.6 1012350
22:00+13n599196 2.0 1014361
17 may, mon
mon1701:00+12w1191100 2.1 101532
04:00+11w11937 0.0 101513
07:00+12sw0087100 0.0 1016109
10:00+15sw247199 0.0 1015814
13:00+20w465252 0.9 10141565
16:00+20w4852100 0.1 1012889
19:00+20wsw7125598 0.1 1012666
22:00+16wsw7146592 0.0 1012427